Mora, MN

1:48 AM CDT on June 28, 2017 (GMT -0500)
Mora Municipal

Weather History for KJMR - April, 2014

Change the Weather History Date:

Thursday, April 17, 2014

  Actual Average Record
Temperature  
Mean Temperature 32 °F -  
Max Temperature 41 °F 58 °F 86 °F (1987)
Min Temperature 24 °F 31 °F 10 °F (1988)
Degree Days  
Heating Degree Days 32    
Moisture  
Dew Point 23 °F    
Average Humidity 67    
Maximum Humidity 86    
Minimum Humidity 45    
Precipitation  
Precipitation 0.03 in - - ()
Sea Level Pressure  
Sea Level Pressure 30.22 in    
Wind  
Wind Speed 7 mph (NNW)    
Max Wind Speed 13 mph    
Max Gust Speed 21 mph    
Visibility 10 miles    
Events Snow    
Averages and records for this station are not official NWS values.
T = Trace of Precipitation, MM = Missing Value Source: NWS Daily Summary

Daily Weather History Graph

Daily Weather History Graph

Search for Another Location

Airport or City:

Trip Planner

Search our weather history database for the weather conditions in past years. The results will help you decide how hot, cold, wet, or windy it might be!

Date:

Astronomy

Apr. 17, 2014 Rise Set
Actual Time 6:23 AM CDT 8:02 PM CDT
Civil Twilight 5:52 AM CDT 8:34 PM CDT
Nautical Twilight 5:13 AM CDT 9:12 PM CDT
Astronomical Twilight 4:32 AM CDT 9:54 PM CDT
Moon 10:55 PM CDT (4/17) 7:50 AM CDT (4/17)
Length of Visible Light 14h 42m
Length of Day
13h 39m
Waning Gibbous, 93% of the Moon is Illuminated
Apr 17
Waning Gibbous
Apr 22
Last Quarter
Apr 29
New
May 6
First Quarter
May 14
Full

Hourly Weather History & Observations

Time (CDT) Temp. Windchill Dew Point Humidity Pressure Visibility Wind Dir Wind Speed Gust Speed Precip Events Conditions
12:10 AM 28.4 °F 19.1 °F 24.8 °F 86% 30.07 in 7.0 mi NNE 10.4 mph 18.4 mph 0.01 in Snow Light Snow
12:30 AM 28.4 °F 19.1 °F 24.8 °F 86% 30.07 in 7.0 mi NNE 10.4 mph 18.4 mph 0.01 in Snow Light Snow
12:49 AM 30.2 °F 23.4 °F 24.8 °F 80% 30.07 in 10.0 mi NE 6.9 mph - 0.01 in Snow Light Snow
1:10 AM 30.2 °F 20.8 °F 24.8 °F 80% 30.08 in 7.0 mi NNE 11.5 mph 20.7 mph N/A Snow Light Snow
1:30 AM 30.2 °F 23.4 °F 24.8 °F 80% 30.08 in 10.0 mi North 6.9 mph 18.4 mph 0.01 in Snow Light Snow
1:50 AM 30.2 °F 21.9 °F 24.8 °F 80% 30.09 in 10.0 mi NNE 9.2 mph - 0.01 in   Overcast
2:10 AM 30.2 °F 22.6 °F 24.8 °F 80% 30.09 in 10.0 mi NNE 8.1 mph - N/A   Overcast
2:30 AM 30.2 °F 22.6 °F 24.8 °F 80% 30.08 in 10.0 mi NNE 8.1 mph - N/A   Overcast
2:50 AM 30.2 °F 23.4 °F 24.8 °F 80% 30.09 in 10.0 mi NNE 6.9 mph 17.3 mph N/A   Overcast
3:10 AM 30.2 °F 22.6 °F 24.8 °F 80% 30.09 in 10.0 mi North 8.1 mph - N/A   Overcast
3:30 AM 30.2 °F 23.4 °F 24.8 °F 80% 30.10 in 10.0 mi North 6.9 mph - N/A   Overcast
3:49 AM 30.2 °F 23.4 °F 24.8 °F 80% 30.10 in 10.0 mi North 6.9 mph - N/A   Overcast
4:10 AM 30.2 °F 23.4 °F 24.8 °F 80% 30.10 in 10.0 mi North 6.9 mph - N/A   Overcast
4:30 AM 30.2 °F 25.4 °F 24.8 °F 80% 30.10 in 10.0 mi North 4.6 mph - N/A   Overcast
4:50 AM 30.2 °F 23.4 °F 24.8 °F 80% 30.11 in 10.0 mi North 6.9 mph - N/A   Overcast
5:10 AM 30.2 °F 21.9 °F 24.8 °F 80% 30.12 in 10.0 mi North 9.2 mph - N/A   Overcast
5:30 AM 28.4 °F 22.2 °F 23.0 °F 80% 30.13 in 10.0 mi North 5.8 mph - N/A   Overcast
5:50 AM 26.6 °F 18.2 °F 23.0 °F 86% 30.14 in 10.0 mi North 8.1 mph - N/A   Overcast
6:10 AM 26.6 °F 19.1 °F 23.0 °F 86% 30.15 in 10.0 mi North 6.9 mph - N/A   Overcast
6:30 AM 28.4 °F 20.4 °F 23.0 °F 80% 30.16 in 10.0 mi North 8.1 mph - N/A   Overcast
6:50 AM 28.4 °F 19.7 °F 23.0 °F 80% 30.17 in 10.0 mi NNW 9.2 mph - N/A   Overcast
7:10 AM 28.4 °F 19.1 °F 23.0 °F 80% 30.18 in 10.0 mi North 10.4 mph 18.4 mph 0.01 in   Overcast
7:29 AM 28.4 °F 19.1 °F 23.0 °F 80% 30.18 in 10.0 mi NNW 10.4 mph 16.1 mph 0.01 in   Overcast
7:50 AM 28.4 °F 20.4 °F 23.0 °F 80% 30.19 in 10.0 mi North 8.1 mph 17.3 mph 0.01 in   Overcast
8:10 AM 30.2 °F 23.4 °F 23.0 °F 75% 30.20 in 10.0 mi North 6.9 mph 16.1 mph N/A   Overcast
8:30 AM 30.2 °F 23.4 °F 23.0 °F 75% 30.20 in 10.0 mi North 6.9 mph - N/A   Overcast
8:50 AM 30.2 °F 22.6 °F 23.0 °F 75% 30.21 in 10.0 mi North 8.1 mph - 0.01 in   Overcast
9:10 AM 32.0 °F 23.0 °F 24.8 °F 75% 30.22 in 10.0 mi NNW 11.5 mph 16.1 mph N/A   Overcast
9:30 AM 32.0 °F 22.5 °F 23.0 °F 69% 30.22 in 10.0 mi NNW 12.7 mph - N/A   Overcast
9:50 AM 32.0 °F 24.2 °F 23.0 °F 69% 30.23 in 10.0 mi NNW 9.2 mph - N/A   Overcast
10:10 AM 32.0 °F 23.6 °F 23.0 °F 69% 30.24 in 10.0 mi North 10.4 mph 17.3 mph N/A   Overcast
10:30 AM 33.8 °F 28.6 °F 24.8 °F 70% 30.25 in 10.0 mi North 5.8 mph - N/A   Overcast
11:09 AM 33.8 °F 29.6 °F 23.0 °F 65% 30.26 in 10.0 mi North 4.6 mph - N/A   Overcast
11:30 AM 35.6 °F 31.7 °F 23.0 °F 60% 30.27 in 10.0 mi North 4.6 mph - N/A   Overcast
12:10 PM 35.6 °F 27.5 °F 23.0 °F 60% 30.27 in 10.0 mi NNW 11.5 mph - N/A   Overcast
12:30 PM 35.6 °F 30.7 °F 23.0 °F 60% 30.27 in 10.0 mi North 5.8 mph - N/A   Overcast
12:49 PM 37.4 °F - 23.0 °F 56% 30.27 in 10.0 mi Calm Calm - N/A   Mostly Cloudy
1:10 PM 37.4 °F 34.9 °F 23.0 °F 56% 30.27 in 10.0 mi WNW 3.5 mph - N/A   Mostly Cloudy
1:30 PM 37.4 °F 33.8 °F 23.0 °F 56% 30.26 in 10.0 mi NNW 4.6 mph - N/A   Mostly Cloudy
1:49 PM 37.4 °F 33.8 °F 23.0 °F 56% 30.27 in 10.0 mi WNW 4.6 mph - N/A   Scattered Clouds
2:10 PM 41.0 °F 37.1 °F 23.0 °F 49% 30.26 in 10.0 mi NNW 5.8 mph - N/A   Clear
2:30 PM 41.0 °F 38.0 °F 23.0 °F 49% 30.27 in 10.0 mi NNW 4.6 mph - N/A   Scattered Clouds
2:50 PM 41.0 °F 38.0 °F 23.0 °F 49% 30.27 in 10.0 mi West 4.6 mph - N/A   Clear
3:10 PM 41.0 °F 36.4 °F 23.0 °F 49% 30.27 in 10.0 mi NW 6.9 mph - N/A   Scattered Clouds
3:30 PM 39.2 °F 35.9 °F 21.2 °F 49% 30.27 in 10.0 mi NW 4.6 mph - N/A   Clear
3:50 PM 41.0 °F 37.1 °F 23.0 °F 49% 30.27 in 10.0 mi NW 5.8 mph - N/A   Clear
4:10 PM 41.0 °F 35.8 °F 21.2 °F 45% 30.27 in 10.0 mi NW 8.1 mph - N/A   Clear
4:30 PM 41.0 °F 38.0 °F 21.2 °F 45% 30.27 in 10.0 mi NNW 4.6 mph - N/A   Clear
4:50 PM 41.0 °F 37.1 °F 21.2 °F 45% 30.27 in 10.0 mi NNW 5.8 mph - N/A   Clear
5:10 PM 41.0 °F 37.1 °F 21.2 °F 45% 30.28 in 10.0 mi NNW 5.8 mph - N/A   Clear
5:30 PM 41.0 °F 39.0 °F 21.2 °F 45% 30.28 in 10.0 mi NW 3.5 mph - N/A   Clear
5:50 PM 41.0 °F 37.1 °F 21.2 °F 45% 30.28 in 10.0 mi NW 5.8 mph - N/A   Clear
6:10 PM 39.2 °F 35.9 °F 19.4 °F 45% 30.28 in 10.0 mi NNW 4.6 mph - N/A   Clear
6:30 PM 39.2 °F 35.9 °F 19.4 °F 45% 30.27 in 10.0 mi NNW 4.6 mph - N/A   Clear
6:50 PM 39.2 °F 37.0 °F 19.4 °F 45% 30.27 in 10.0 mi NW 3.5 mph - N/A   Clear
7:10 PM 37.4 °F - 19.4 °F 48% 30.27 in 10.0 mi Calm Calm - N/A   Clear
7:30 PM 37.4 °F 33.8 °F 19.4 °F 48% 30.28 in 10.0 mi SW 4.6 mph - N/A   Clear
7:50 PM 35.6 °F 32.8 °F 23.0 °F 60% 30.28 in 10.0 mi SW 3.5 mph - N/A   Clear
8:10 PM 35.6 °F 32.8 °F 23.0 °F 60% 30.28 in 10.0 mi WSW 3.5 mph - N/A   Clear
8:30 PM 33.8 °F - 23.0 °F 65% 30.29 in 10.0 mi Calm Calm - N/A   Clear
8:50 PM 33.8 °F - 23.0 °F 65% 30.30 in 10.0 mi Calm Calm - N/A   Clear
9:10 PM 32.0 °F 28.7 °F 23.0 °F 69% 30.30 in 10.0 mi SW 3.5 mph - N/A   Clear
9:30 PM 32.0 °F - 23.0 °F 69% 30.31 in 10.0 mi Calm Calm - N/A   Clear
9:50 PM 32.0 °F - 23.0 °F 69% 30.31 in 10.0 mi Calm Calm - N/A   Clear
10:10 PM 32.0 °F - 23.0 °F 69% 30.31 in 10.0 mi Calm Calm - N/A   Clear
10:30 PM 30.2 °F - 21.2 °F 69% 30.31 in 10.0 mi Calm Calm - N/A   Clear
10:50 PM 26.6 °F - 21.2 °F 80% 30.31 in 10.0 mi Calm Calm - N/A   Clear
11:10 PM 24.8 °F - 19.4 °F 80% 30.32 in 10.0 mi Calm Calm - N/A   Clear
11:30 PM 24.8 °F - 21.2 °F 86% 30.32 in 10.0 mi Calm Calm - N/A   Clear
11:50 PM 24.8 °F - 21.2 °F 86% 30.32 in 10.0 mi Calm Calm - N/A   Clear